RH
48 49 48 46 45 44 43 41 39 39 40 39 37 35 33 31 28 28 28 29 28 29
54 54 51 50 49 48 47 44 45 45 45 42 38 36 33 31 31 30 29 28 29 26
59 58 55 54 51 51 49 48 49 49 46 41 38 36 35 33 30 29 28 25 24 23
63 61 59 55 53 54 54 55 52 48 44 41 39 35 32 31 31 29 25 24 25 26
65 62 59 57 65 62 58 52 49 46 42 38 35 33 34 31 27 25 26 26 28 29
66 62 66 70 64 61 55 51 47 44 40 35 35 36 30 27 26 27 29 30 32 34
67 73 72 69 64 56 53 50 46 41 37 38 34 30 27 26 28 29 29 32 35 38
85 78 70 65 61 55 50 47 42 40 40 35 31 28 26 31 31 31 33 35 38 39
78 72 66 64 57 53 47 44 43 41 35 30 28 28 28 33 35 36 38 39 39 42
73 68 65 57 53 47 46 44 41 34 30 29 29 29 34 36 39 41 44 44 44 46
67 61 57 55 50 47 43 39 32 30 31 30 30 32 38 39 41 44 46 48 49 54
60 58 55 48 45 43 38 32 31 31 31 32 34 36 39 43 47 48 51 50 56 64
57 52 48 45 43 37 34 32 31 32 33 35 36 38 44 48 51 52 49 54 63 66
48 48 46 41 38 34 32 32 31 32 33 34 37 41 46 50 55 56 55 61 62 67